Temperature
22 21 21 21 23 26 28 30 31 30 30 30 30 29 28 27 26 24 23 23 21 21 21 21 21 20 20 20 20 20 20 19 19 19 19 19 19 19 19 19 19 19 19 19 19 19 19 19 19
21 21 21 23 25 27 28 30 30 31 31 30 30 29 28 26 25 24 23 22 22 21 21 21 21 20 20 20 20 20 20 19 19 19 19 19 19 19 19 19 19 19 19 19 19 19 19 19 19
21 22 23 25 27 28 29 30 30 31 31 30 29 28 27 26 25 24 23 23 22 21 21 21 21 21 20 20 20 20 19 19 19 19 19 19 19 19 19 19 19 19 19 19 19 19 19 19 19
22 23 25 27 28 30 31 31 31 31 30 30 29 28 27 26 25 24 23 23 22 21 21 22 21 21 20 20 20 20 20 19 19 19 19 19 19 19 19 19 19 19 19 19 19 19 19 19 19
23 25 27 28 29 31 32 32 32 31 31 30 29 27 26 25 25 24 24 24 22 21 22 22 21 21 21 20 20 20 20 20 19 19 19 19 19 19 19 19 19 19 19 19 19 19 19 19 19
25 27 28 29 30 31 32 32 32 31 31 30 29 27 26 25 25 24 24 24 23 22 22 22 22 21 21 21 20 20 20 20 19 19 19 19 19 19 19 19 19 19 19 19 19 19 19 19 19
27 27 29 30 31 31 32 32 32 32 31 30 29 28 26 25 25 25 24 24 23 22 22 22 22 21 21 21 20 20 20 20 20 19 19 19 19 19 19 19 19 19 19 19 19 19 19 19 19
28 29 30 31 31 31 32 32 32 31 31 30 29 28 26 25 25 25 24 24 23 22 22 22 22 21 21 21 21 20 20 20 20 20 19 19 19 19 19 19 19 19 19 19 19 19 19 19 19
30 30 30 31 31 32 32 32 32 31 30 30 29 28 26 26 25 25 24 24 23 23 22 22 21 21 21 21 21 20 20 20 20 20 19 19 19 19 19 19 19 19 19 19 19 19 19 19 19
31 31 32 33 33 32 33 32 32 31 30 30 28 27 26 26 25 25 24 24 23 23 22 22 22 21 21 21 20 20 20 20 20 20 19 19 19 19 19 19 19 19 19 19 19 19 19 19 19
32 32 33 34 33 33 32 32 32 31 30 29 28 27 27 26 26 25 25 24 23 23 22 22 22 21 21 21 21 20 20 20 20 19 19 19 19 19 19 19 19 19 19 19 19 19 19 19 19
33 34 34 34 33 33 33 32 32 31 30 29 28 27 27 26 26 26 25 24 24 23 22 22 22 21 21 21 21 20 20 20 20 19 19 19 19 19 19 19 19 19 19 19 19 19 19 19 19
34 34 34 34 34 33 32 32 31 31 30 29 28 28 27 27 26 26 25 24 24 23 22 22 21 21 21 21 21 20 20 20 20 20 19 19 19 19 19 19 19 19 19 19 19 19 19 19 19
34 34 34 34 34 33 33 32 31 30 30 29 29 28 27 27 26 26 25 24 23 23 22 22 21 21 21 21 21 20 20 20 20 20 19 19 19 19 19 19 19 19 19 19 19 19 19 19 19
34 34 33 34 34 33 32 31 31 30 30 29 29 28 28 27 27 26 25 24 23 23 22 22 21 21 21 21 21 20 20 20 20 20 19 19 19 19 19 19 19 19 19 19 19 19 19 19 19
34 33 32 34 34 34 32 30 31 31 30 30 29 29 28 27 27 26 25 24 23 22 22 22 21 21 21 21 21 20 20 20 20 20 20 19 19 19 19 19 19 19 19 19 19 19 19 19 19
32 32 32 33 34 34 33 31 32 31 31 30 30 29 28 27 27 26 25 24 23 22 22 22 21 21 21 21 20 20 20 20 20 20 19 19 19 19 19 19 19 19 19 19 19 19 19 19 19
32 32 32 32 34 34 33 32 32 32 32 31 30 29 28 28 27 26 25 24 23 22 22 22 21 21 21 20 20 20 20 20 20 19 19 19 19 19 19 19 19 19 19 19 19 19 19 18 19
33 33 33 33 34 34 33 33 32 32 32 31 30 29 28 28 27 26 25 24 23 22 22 21 21 21 21 20 20 20 20 20 19 19 19 19 19 19 19 19 19 18 18 19 19 18 19 18 18
34 33 33 33 34 34 34 33 33 32 32 31 30 29 29 28 27 26 25 24 23 22 22 22 21 21 21 21 20 20 20 20 19 19 19 19 19 19 19 19 18 18 18 18 18 18 18 18 18
33 33 33 33 34 34 33 32 31 32 32 31 30 29 29 28 27 26 25 25 24 23 22 22 21 21 21 21 20 20 20 19 19 19 19 19 19 19 19 19 18 18 18 18 18 18 18 18 18
32 34 33 33 33 32 33 30 31 31 31 31 30 30 29 28 27 26 25 25 24 23 22 22 21 21 21 21 20 20 20 20 19 19 19 19 19 19 19 18 18 18 18 18 18 18 18 18 18
33 34 33 33 32 31 31 31 30 30 31 30 30 30 29 28 27 26 26 25 24 24 23 22 21 21 21 20 20 20 20 20 19 19 19 19 19 18 18 18 18 18 18 18 18 18 18 18 18
34 33 32 32 32 29 30 30 29 30 31 31 31 30 29 28 27 26 26 25 25 24 23 22 21 21 21 20 20 20 20 20 19 19 19 19 18 18 18 18 18 18 18 18 18 17 17 18 18
34 31 30 29 29 29 31 30 29 31 31 32 31 30 29 28 27 27 26 25 24 24 23 22 21 21 21 20 20 20 20 19 19 19 19 18 18 18 18 18 18 18 18 17 17 17 17 17 17
33 32 30 29 29 30 29 29 29 31 31 31 31 30 29 28 28 27 26 25 25 24 23 22 21 21 21 20 20 20 20 19 19 19 19 18 18 18 18 18 18 18 18 17 17 17 17 17 17
33 32 33 32 31 29 29 28 29 31 31 31 31 30 29 28 28 27 26 26 25 24 23 22 22 21 20 20 20 20 19 19 19 19 18 18 18 18 18 18 17 17 17 17 17 17 17 16 16
34 33 33 31 29 28 29 28 29 29 30 31 30 29 28 28 27 27 26 25 25 24 23 23 22 21 20 20 20 19 19 19 19 18 18 18 18 18 18 18 17 17 17 17 17 16 16 16 16
32 32 32 32 31 29 28 29 30 30 30 30 30 29 28 28 27 27 26 25 25 24 23 22 22 21 20 20 19 19 19 19 18 18 18 18 18 18 18 17 17 17 16 16 16 16 16 16 16
33 32 32 31 30 30 30 29 31 30 30 30 29 28 28 28 27 26 25 25 24 24 23 22 21 21 20 20 19 19 19 18 18 18 18 18 17 17 17 17 17 16 16 16 16 16 16 16 15
Wind_Speed
10 10 8 5 4 1 7 10 12 12 12 13 13 13 16 15 11 10 7 11 14 13 12 12 12 11 10 10 10 10 10 10 9 9 9 9 9 9 9 9 9 9 8 8 8 8 8 8 7
9 9 7 4 2 5 10 11 12 12 12 12 14 15 16 15 14 11 10 12 14 14 13 13 13 11 11 10 10 9 9 9 8 8 8 8 8 8 8 8 7 7 7 7 7 7 7 7 7
10 9 5 2 3 7 10 10 10 11 10 11 14 14 12 12 13 10 11 13 14 14 15 14 13 12 11 10 9 9 9 9 8 8 7 8 8 7 7 7 6 6 6 6 6 6 6 6 6
6 6 4 1 6 8 9 9 9 10 10 11 12 11 13 12 11 12 13 13 14 14 15 15 14 13 11 10 9 9 9 8 8 7 7 7 7 7 7 6 6 6 6 6 6 5 5 5 5
6 4 3 3 7 9 9 9 10 10 11 12 14 15 14 13 14 14 12 12 13 14 14 15 15 13 12 10 9 8 8 7 7 7 6 7 7 6 6 6 6 5 5 5 5 5 5 5 5
5 3 1 4 9 9 9 9 10 11 11 13 14 15 11 12 13 12 12 11 12 14 15 14 15 14 12 11 9 8 8 7 7 6 6 6 6 6 6 6 6 6 5 4 5 5 5 5 6
5 3 2 4 8 9 9 9 9 10 10 11 13 14 11 11 12 11 11 12 11 12 14 13 12 12 12 11 10 9 8 7 6 6 5 5 5 5 5 5 5 5 5 4 5 5 5 5 6
5 3 2 5 7 9 9 9 9 11 11 10 9 10 11 12 12 12 11 11 10 10 11 10 11 10 10 11 10 9 8 7 6 5 5 5 5 6 6 6 6 6 6 5 6 6 5 6 7
4 2 3 6 7 7 9 9 9 10 10 10 10 14 16 14 13 12 11 11 9 8 8 8 8 9 9 10 10 10 9 7 6 6 6 6 6 6 7 6 7 7 7 7 7 7 7 7 8
2 1 3 6 8 7 8 7 8 9 10 12 14 16 15 14 12 11 11 10 10 9 7 7 7 7 7 7 9 7 7 7 6 4 5 5 4 4 5 7 9 9 8 8 9 9 8 8 7
1 1 4 6 8 7 7 6 6 9 9 11 13 14 14 13 11 10 10 10 9 9 7 7 7 6 4 4 5 4 4 6 5 3 3 3 2 2 3 4 5 6 8 6 7 8 7 6 5
1 1 2 4 6 6 5 6 8 9 8 11 12 14 13 11 10 9 9 9 9 9 8 7 7 6 4 3 3 3 2 3 3 3 1 1 1 2 2 1 2 2 3 4 3 3 3 2 3
1 1 2 3 4 6 5 7 8 9 9 11 12 12 12 11 10 8 9 9 8 8 8 7 7 5 4 3 1 3 2 3 4 4 3 3 3 3 2 3 2 1 1 1 1 1 2 1 1
1 0 1 3 5 5 5 6 7 8 8 9 11 11 10 9 10 9 9 9 8 7 7 7 7 6 3 2 1 1 2 2 3 4 4 3 3 2 2 2 2 2 2 1 1 1 1 1 1
5 3 4 4 4 5 5 5 6 7 9 9 9 10 10 10 9 9 9 9 9 8 7 6 7 6 4 2 1 1 2 3 3 4 5 4 3 3 2 2 1 2 2 1 1 2 1 1 1
7 6 5 3 4 5 5 5 7 9 9 9 8 9 9 9 9 10 10 9 9 9 7 5 5 7 5 3 1 1 2 3 3 4 5 4 3 2 2 2 2 2 2 2 1 1 1 1 0
6 6 5 3 3 4 6 5 9 10 9 9 8 8 9 10 9 9 10 10 9 9 8 6 4 5 5 4 2 1 2 2 3 4 4 3 3 3 2 2 2 1 2 2 3 3 2 1 1
6 6 4 4 4 5 4 5 8 8 9 8 8 8 9 11 10 10 10 11 10 9 8 7 5 5 5 4 3 1 2 2 3 4 3 4 2 2 2 2 2 2 3 3 3 1 1 1 1
9 7 4 3 4 6 5 6 8 8 8 9 9 9 10 10 11 11 10 11 11 9 8 6 6 5 4 3 3 3 2 2 3 3 4 4 2 2 2 2 1 2 2 3 2 2 1 1 0
11 8 7 5 5 5 4 5 6 8 8 8 9 9 10 10 11 12 12 11 11 10 9 8 6 6 6 4 3 3 3 2 3 3 3 3 3 2 2 1 1 1 2 2 2 2 2 2 1
11 9 8 9 6 7 6 5 4 6 6 6 7 7 8 10 10 11 11 11 11 10 10 8 7 7 6 5 4 3 3 2 2 3 3 2 3 3 2 2 1 2 1 1 1 1 2 2 1
11 8 10 11 9 7 7 5 5 6 6 6 6 7 7 8 8 10 11 11 10 11 10 9 8 7 6 5 4 4 4 3 2 2 3 3 2 3 3 1 1 2 2 2 1 2 2 2 2
10 9 10 12 10 9 8 6 4 6 7 7 7 8 7 8 8 8 10 11 10 10 10 10 8 8 7 6 5 3 3 3 3 3 4 3 3 3 2 2 1 1 1 2 2 2 2 2 3
10 9 11 11 9 9 10 9 5 5 5 8 9 8 8 9 9 8 8 8 8 9 10 10 9 8 8 7 6 5 4 4 4 4 4 3 3 2 2 2 1 1 1 1 1 1 2 2 3
11 8 7 8 8 10 9 8 5 5 5 5 7 8 8 9 10 9 8 8 7 8 10 11 11 9 8 7 6 5 5 5 5 4 3 3 3 3 3 2 1 0 0 1 0 0 1 2 2
11 12 10 10 10 8 6 5 3 3 3 4 6 7 6 6 8 8 9 8 8 8 9 11 11 9 9 8 6 5 5 4 3 3 2 2 2 2 3 3 2 1 0 0 0 0 1 1 2
12 12 12 11 12 8 5 5 5 4 4 5 6 7 6 4 5 6 7 8 8 8 8 11 11 9 8 8 7 5 4 3 3 3 2 2 1 2 3 2 2 2 1 0 0 0 1 1 2
14 13 9 9 8 10 7 7 5 4 4 5 5 5 6 5 5 5 6 7 7 7 9 10 11 9 8 7 7 6 5 4 3 3 3 2 2 1 3 2 2 2 2 1 1 1 1 1 2
12 13 11 9 9 9 8 4 3 6 5 5 6 6 5 5 5 5 6 6 6 7 7 9 10 9 8 7 6 6 6 5 4 4 3 2 2 2 2 2 2 2 2 1 1 2 1 2 2
13 13 14 10 9 10 10 3 3 2 3 4 6 6 6 5 5 5 6 6 6 6 6 7 8 9 8 7 6 6 5 5 5 4 4 3 2 2 2 2 2 2 2 1 2 3 2 2 3
Wind_Direction
189 205 214 239 249 211 59 59 65 68 64 58 58 66 63 55 69 95 115 110 111 114 115 113 110 107 105 101 98 97 95 96 97 100 100 103 108 114 117 120 124 129 132 133 136 139 139 137 135
211 215 224 241 268 71 68 64 62 66 73 73 69 70 70 69 80 102 111 116 118 117 116 112 113 110 107 103 100 99 97 96 99 104 102 105 112 117 117 123 127 131 133 137 139 143 144 150 147
240 240 252 234 53 65 72 74 76 76 76 79 76 66 66 82 91 106 117 123 118 115 111 114 115 111 107 105 103 102 99 97 98 105 110 112 117 119 119 124 132 130 134 138 139 144 147 154 158
238 227 229 210 63 69 78 82 84 82 78 78 81 76 74 85 99 111 121 122 115 116 115 118 118 116 113 110 108 106 103 101 99 101 108 118 121 124 121 124 135 132 136 146 145 152 157 166 174
240 262 240 85 73 75 79 81 85 85 82 81 84 89 85 88 103 115 122 117 115 118 117 124 125 123 120 118 117 114 110 108 105 105 105 116 122 120 122 127 138 139 139 152 154 160 168 179 189
249 252 280 65 84 85 81 83 83 83 88 94 97 96 98 110 114 121 119 112 114 119 121 127 133 133 131 127 124 125 121 117 113 111 112 121 128 131 132 137 147 151 153 159 170 173 180 192 201
256 299 356 68 81 84 77 76 83 88 82 86 102 103 107 114 119 120 116 107 108 114 125 136 139 141 139 136 136 135 135 135 134 131 134 140 146 150 151 154 154 157 163 170 178 183 189 200 211
249 294 358 72 74 85 83 77 78 86 83 85 97 104 120 125 126 121 115 104 103 113 119 130 139 142 146 146 149 148 146 152 151 154 162 165 169 174 175 173 169 171 176 178 179 185 196 206 215
248 282 11 69 82 91 93 89 90 87 91 84 82 104 124 130 128 126 117 109 106 108 113 121 126 139 146 145 150 159 158 165 165 173 189 194 191 184 185 174 177 186 190 190 189 196 204 208 217
220 318 34 80 91 95 92 94 107 101 91 91 95 108 123 130 129 125 121 121 119 118 114 114 116 115 131 140 143 162 163 164 176 172 183 204 198 180 166 167 183 192 198 201 202 209 214 217 221
172 25 36 77 92 96 100 99 96 103 103 112 120 125 128 132 134 132 129 128 124 120 114 111 102 94 92 104 136 152 157 155 162 163 175 174 185 160 144 163 182 199 203 212 208 216 223 219 208
259 82 74 87 103 106 103 100 90 90 103 118 125 130 133 140 138 136 132 127 121 118 114 107 103 93 79 81 113 123 128 128 127 143 142 123 78 45 57 81 154 180 191 191 195 203 221 217 211
273 110 105 104 106 106 106 97 97 101 116 123 127 135 143 145 140 137 130 123 120 120 118 110 102 97 94 68 51 112 116 112 120 124 102 59 48 41 55 34 30 10 93 129 168 183 182 199 223
274 174 220 180 133 115 116 115 119 121 130 135 137 142 147 149 147 144 138 134 136 129 124 123 121 114 110 104 32 81 110 117 116 110 102 86 70 48 66 60 14 3 32 34 88 142 151 188 162
255 233 227 214 171 157 154 134 134 145 147 149 151 151 154 156 152 148 146 146 144 136 133 136 139 135 139 141 185 125 128 117 99 102 98 85 75 61 50 66 26 13 26 38 51 60 80 135 139
261 247 232 218 204 174 184 154 159 168 164 160 166 160 158 158 158 151 147 147 142 139 135 143 151 144 148 150 164 69 75 91 95 106 106 92 79 71 39 58 42 16 16 26 53 60 44 46 193
245 239 240 232 229 203 188 159 170 175 166 163 170 163 166 165 163 154 153 149 144 140 142 150 150 147 151 155 160 141 102 92 98 103 105 107 90 54 43 58 30 355 39 31 20 51 11 330 274
249 243 230 230 222 237 208 153 164 176 167 161 165 168 176 174 167 159 157 150 146 144 146 154 155 152 152 155 152 158 129 122 110 103 102 109 101 78 38 72 34 10 46 43 37 14 338 317 293
272 278 271 238 247 244 209 179 171 179 174 166 168 179 180 175 164 159 161 157 152 149 150 156 157 152 152 160 172 178 163 145 130 124 119 117 104 90 78 30 37 35 61 48 30 8 312 293 301
264 264 275 265 254 259 217 197 185 169 181 183 179 181 179 175 164 162 167 166 162 157 157 160 165 161 167 167 170 165 152 151 140 123 118 133 120 93 97 73 354 48 89 65 18 18 332 324 8
267 262 272 277 271 262 252 222 196 181 177 177 175 180 174 179 174 171 170 170 169 165 167 172 171 167 173 169 166 162 141 148 132 132 132 127 127 121 62 58 26 16 56 79 353 16 349 324 317
266 266 269 271 270 269 255 252 204 194 182 184 180 176 174 171 174 177 173 175 177 171 170 167 165 165 171 170 174 173 159 162 150 139 131 140 133 124 115 87 65 29 35 56 16 47 338 323 321
266 274 276 277 273 271 277 268 236 204 197 175 186 178 165 167 172 180 176 174 178 172 168 166 163 165 169 174 167 172 163 160 146 143 145 152 143 125 113 108 83 83 60 45 25 25 358 352 341
264 274 280 275 271 260 254 259 247 223 210 178 182 165 159 159 167 175 172 164 172 169 164 161 160 165 166 171 171 173 170 168 154 153 162 171 154 142 125 115 86 84 78 54 30 356 10 0 355
253 256 262 262 254 253 255 253 239 213 212 178 157 154 167 167 173 175 166 162 163 164 166 162 159 164 167 172 175 174 172 174 168 172 173 177 161 150 148 146 137 147 156 135 76 310 350 348 333
250 247 247 262 268 269 278 271 254 225 177 138 136 134 149 177 170 168 169 163 161 167 165 156 155 163 169 173 174 171 176 189 174 171 168 160 155 148 151 158 158 162 198 138 329 308 301 325 311
252 255 263 271 278 280 264 249 227 214 162 144 124 121 141 178 162 158 160 158 158 164 160 156 153 160 166 169 165 164 173 179 168 156 159 156 156 160 148 160 167 171 174 262 179 297 306 330 319
248 260 265 265 270 275 255 239 216 196 190 149 133 142 153 152 143 145 146 146 152 167 158 153 152 160 164 164 172 169 171 169 167 152 155 160 165 146 143 164 182 185 190 202 248 255 285 293 287
246 251 259 267 268 273 275 256 183 168 176 167 156 153 136 134 127 131 134 136 150 147 147 156 155 160 164 168 167 165 171 174 175 167 170 169 174 168 167 175 193 203 210 221 250 261 270 282 293
246 245 252 255 259 264 268 250 82 70 122 134 128 122 106 97 112 118 123 132 136 140 143 147 157 165 165 163 166 173 169 174 183 174 174 171 180 193 190 194 211 220 211 232 251 271 280 277 277
Height
1491 1492 1493 1495 1494 1489 1484 1474 1468 1469 1471 1473 1473 1475 1480 1484 1489 1502 1502 1501 1501 1502 1503 1503 1504 1505 1506 1506 1507 1507 1508 1508 1509 1510 1511 1512 1513 1514 1515 1516 1518 1519 1520 1522 1523 1525 1526 1528 1530
1491 1493 1496 1495 1492 1491 1485 1474 1473 1472 1473 1475 1477 1479 1483 1489 1493 1498 1501 1502 1502 1503 1504 1505 1506 1506 1507 1508 1508 1509 1510 1510 1511 1512 1512 1513 1514 1515 1516 1518 1519 1520 1521 1523 1524 1526 1527 1529 1531
1491 1494 1495 1489 1486 1488 1485 1474 1473 1473 1475 1476 1479 1483 1487 1493 1497 1499 1502 1503 1504 1505 1505 1506 1507 1508 1509 1509 1510 1511 1511 1512 1512 1513 1513 1514 1515 1516 1517 1519 1520 1521 1522 1523 1525 1526 1528 1529 1531
1493 1494 1492 1486 1485 1477 1473 1472 1472 1474 1477 1478 1481 1487 1492 1496 1498 1501 1503 1504 1505 1506 1507 1508 1509 1509 1510 1511 1512 1512 1513 1513 1514 1514 1515 1515 1516 1517 1518 1519 1520 1521 1523 1524 1525 1526 1528 1530 1532
1494 1491 1487 1484 1481 1473 1471 1471 1473 1475 1477 1480 1483 1490 1496 1499 1500 1502 1504 1506 1507 1508 1508 1509 1510 1511 1511 1512 1513 1514 1514 1515 1515 1516 1516 1517 1518 1519 1519 1520 1521 1522 1523 1524 1526 1527 1529 1530 1532
1492 1486 1488 1487 1479 1473 1471 1472 1474 1476 1479 1482 1486 1492 1499 1501 1502 1504 1506 1507 1508 1508 1509 1511 1511 1512 1513 1514 1514 1515 1516 1516 1517 1518 1518 1518 1519 1520 1521 1522 1522 1523 1524 1525 1526 1528 1529 1530 1532
1491 1487 1485 1482 1478 1475 1473 1474 1475 1477 1480 1482 1486 1492 1499 1502 1504 1505 1506 1508 1509 1510 1510 1511 1512 1513 1514 1515 1516 1517 1517 1518 1518 1519 1519 1520 1520 1521 1522 1522 1523 1524 1525 1525 1526 1528 1529 1530 1532
1485 1483 1481 1478 1479 1478 1474 1475 1477 1479 1482 1486 1487 1492 1499 1503 1504 1506 1508 1509 1510 1511 1512 1513 1514 1515 1516 1517 1517 1518 1518 1519 1520 1520 1521 1521 1522 1522 1523 1523 1524 1525 1525 1526 1526 1528 1529 1530 1531
1482 1485 1483 1478 1478 1477 1475 1476 1479 1481 1484 1486 1488 1492 1498 1502 1504 1506 1509 1510 1512 1513 1514 1515 1516 1517 1517 1518 1519 1519 1520 1520 1521 1521 1522 1522 1523 1523 1524 1525 1525 1525 1526 1526 1527 1528 1529 1530 1531
1480 1483 1477 1470 1472 1474 1476 1477 1479 1482 1485 1489 1493 1496 1500 1503 1505 1507 1509 1511 1512 1513 1515 1517 1518 1519 1519 1520 1520 1521 1521 1522 1522 1523 1523 1523 1524 1524 1525 1525 1526 1526 1527 1527 1527 1528 1529 1529 1530
1476 1477 1472 1470 1472 1475 1477 1479 1480 1482 1486 1491 1494 1498 1501 1504 1506 1508 1510 1511 1513 1514 1516 1518 1519 1519 1521 1521 1521 1522 1522 1523 1523 1524 1524 1524 1525 1526 1526 1526 1526 1526 1527 1527 1527 1528 1528 1529 1530
1474 1472 1471 1471 1473 1475 1477 1478 1481 1484 1488 1491 1495 1497 1501 1504 1506 1508 1511 1512 1514 1515 1517 1518 1519 1520 1521 1522 1522 1523 1524 1524 1524 1524 1524 1525 1526 1526 1526 1526 1526 1527 1527 1527 1528 1528 1529 1529 1530
1473 1472 1472 1472 1473 1475 1478 1480 1483 1486 1490 1492 1495 1498 1501 1504 1506 1509 1511 1513 1514 1516 1517 1519 1519 1520 1521 1522 1523 1524 1524 1525 1526 1525 1525 1526 1526 1526 1527 1527 1527 1527 1527 1527 1528 1528 1529 1529 1530
1473 1472 1473 1472 1473 1476 1477 1481 1484 1487 1491 1493 1495 1498 1501 1504 1506 1509 1511 1513 1515 1516 1518 1519 1519 1520 1521 1522 1523 1524 1525 1526 1527 1526 1526 1526 1527 1527 1527 1527 1526 1527 1527 1527 1528 1528 1529 1529 1529
1473 1473 1473 1471 1472 1474 1478 1483 1484 1487 1490 1493 1495 1498 1501 1503 1506 1509 1511 1513 1514 1516 1517 1519 1520 1520 1521 1522 1523 1525 1525 1526 1526 1526 1526 1526 1527 1527 1527 1527 1527 1527 1527 1528 1528 1528 1528 1529 1529
1473 1476 1480 1472 1470 1471 1480 1490 1484 1486 1488 1491 1494 1497 1500 1503 1505 1508 1510 1512 1514 1515 1517 1518 1520 1520 1521 1522 1523 1525 1526 1526 1526 1526 1526 1526 1527 1527 1527 1527 1528 1528 1528 1528 1528 1528 1528 1528 1528
1478 1484 1483 1476 1468 1468 1473 1482 1480 1482 1485 1488 1492 1495 1499 1501 1504 1507 1509 1511 1513 1514 1516 1517 1519 1520 1521 1522 1524 1525 1526 1526 1527 1526 1526 1527 1527 1527 1528 1528 1528 1528 1528 1528 1528 1528 1528 1528 1528
1483 1481 1478 1477 1468 1467 1471 1475 1476 1479 1481 1485 1490 1493 1497 1500 1503 1505 1508 1510 1512 1513 1515 1517 1518 1520 1521 1522 1523 1524 1525 1526 1526 1527 1527 1527 1527 1527 1528 1528 1528 1528 1528 1528 1528 1528 1528 1528 1528
1471 1474 1475 1471 1464 1466 1469 1472 1473 1476 1479 1483 1487 1491 1494 1497 1501 1503 1506 1509 1510 1512 1514 1516 1517 1518 1520 1521 1522 1524 1525 1526 1526 1526 1526 1527 1527 1527 1527 1527 1528 1528 1528 1528 1528 1528 1528 1528 1528
1468 1475 1475 1468 1462 1464 1467 1471 1470 1473 1478 1480 1483 1487 1492 1495 1498 1501 1504 1507 1509 1510 1512 1514 1516 1517 1518 1520 1522 1523 1525 1525 1526 1526 1526 1526 1527 1527 1527 1527 1527 1528 1528 1528 1528 1527 1528 1528 1528
1469 1471 1473 1472 1464 1462 1469 1476 1473 1472 1475 1478 1481 1485 1488 1491 1496 1499 1502 1505 1507 1509 1510 1512 1514 1515 1517 1519 1521 1523 1524 1524 1525 1525 1525 1526 1526 1526 1527 1527 1527 1528 1528 1528 1527 1527 1527 1527 1528
1473 1463 1465 1466 1472 1476 1472 1491 1480 1473 1475 1477 1479 1482 1486 1489 1493 1497 1499 1502 1505 1507 1509 1511 1512 1514 1516 1517 1519 1521 1522 1523 1523 1524 1525 1525 1526 1526 1526 1526 1527 1527 1527 1527 1527 1527 1527 1527 1527
1465 1460 1463 1466 1471 1478 1477 1487 1485 1473 1475 1475 1477 1479 1482 1486 1490 1494 1497 1499 1502 1505 1507 1508 1510 1512 1514 1516 1517 1519 1520 1521 1522 1523 1524 1525 1525 1525 1526 1526 1526 1526 1526 1526 1527 1527 1526 1526 1526
1458 1464 1466 1467 1473 1493 1483 1489 1491 1476 1472 1471 1473 1477 1481 1484 1488 1492 1494 1497 1500 1502 1505 1506 1508 1510 1512 1513 1515 1517 1518 1520 1521 1522 1523 1524 1524 1524 1525 1525 1525 1525 1525 1526 1526 1526 1526 1525 1525
1460 1475 1492 1497 1495 1493 1475 1482 1483 1468 1466 1467 1470 1475 1480 1482 1486 1489 1492 1495 1497 1500 1502 1504 1506 1508 1510 1511 1513 1515 1517 1518 1519 1520 1521 1522 1523 1523 1523 1524 1524 1524 1524 1525 1525 1525 1525 1524 1524
1461 1468 1490 1502 1498 1488 1480 1487 1478 1465 1465 1467 1470 1474 1479 1481 1483 1485 1489 1492 1495 1498 1500 1502 1503 1506 1508 1510 1511 1513 1515 1516 1518 1519 1520 1521 1521 1522 1522 1523 1523 1523 1523 1523 1523 1523 1523 1523 1523
1463 1463 1459 1472 1478 1490 1488 1483 1475 1466 1465 1467 1469 1473 1479 1480 1482 1484 1487 1490 1493 1496 1498 1500 1501 1504 1506 1508 1509 1511 1513 1514 1516 1517 1518 1519 1520 1521 1521 1521 1521 1521 1521 1522 1522 1521 1521 1521 1521
1453 1454 1461 1474 1492 1500 1491 1486 1480 1470 1467 1468 1470 1475 1477 1480 1481 1483 1485 1488 1491 1493 1495 1498 1500 1502 1504 1506 1508 1509 1511 1512 1514 1515 1516 1517 1518 1518 1519 1519 1520 1520 1520 1520 1520 1520 1519 1519 1519
1457 1458 1460 1465 1470 1490 1500 1489 1462 1464 1464 1467 1469 1474 1476 1478 1480 1482 1484 1487 1490 1492 1494 1497 1498 1500 1502 1504 1506 1508 1509 1510 1512 1513 1513 1514 1515 1516 1517 1517 1517 1518 1518 1518 1518 1517 1517 1517 1516
1450 1454 1458 1471 1476 1473 1481 1482 1458 1462 1464 1467 1470 1474 1476 1478 1480 1483 1485 1487 1489 1492 1493 1495 1497 1499 1500 1502 1504 1506 1507 1508 1510 1511 1511 1512 1513 1514 1515 1515 1515 1516 1515 1515 1515 1515 1515 1514 1513